"startDT [UTC]","vpos","CH4 [ppm]","stdev(CH4) [ppm]","CO2 [ppm]","stdev(CO2) [ppm]","H2O_reported [%]","stdev(H2O_reported)","CavityPressure [torr]","CavityTemp [C]","OutletValve","CH4_dry [ppm]","CO2_dry [ppm]","DasTemp [C]","EtalonTemp [C]","WarmBoxTemp [C]","MPVPosition","T_ECpre [C]","T_EC1 [C]","T_EC2 [C]","p_inlet [hPa]","p_in [hPa]","p_out [hPa]","T_inlet [C]","RH_inlet [%]","dwpt_inlet [C]","T_vent [C]","RH_vent [%]","dwpt_vent [C]","flow_vent [l min-1]","flow_inlet [l min-1]","dwpt_sample [C]","T_room [C]"
2015-11-15 00:00:00,3.0,1.88555,0.02586,398.972,1.997,0.0234,0.0310,139.994,45.000,31510.09469,1.88856,399.201,31.524,45.070,45.000,0.00,0.09,-272.74,-272.79,-1,510,-952,16.9,4.1,-25.2,17.0,4.2,-24.9,5.73,2.00,-13.8,23.3
2015-11-15 00:01:00,3.0,1.87622,0.00044,397.189,0.050,0.0059,0.0026,139.999,45.000,31508.23887,1.87634,397.219,31.502,45.070,45.000,0.00,0.09,-272.74,-272.80,-1,510,-952,16.9,4.1,-25.2,17.0,4.2,-24.9,5.73,1.91,-13.8,23.3
2015-11-15 00:02:00,3.0,1.87615,0.00037,397.380,0.089,0.0062,0.0020,140.000,45.000,31507.15728,1.87628,397.406,31.500,45.070,45.000,0.00,0.09,-272.74,-272.80,-1,510,-952,16.9,4.1,-25.2,17.0,4.2,-24.8,5.73,1.93,-13.8,23.3
2015-11-15 00:03:00,3.0,1.87614,0.00042,397.591,0.053,0.0059,0.0020,139.996,45.000,31502.23561,1.87622,397.618,31.499,45.070,45.000,0.00,0.09,-272.74,-272.79,-1,510,-952,16.9,4.1,-25.2,17.0,4.2,-24.9,5.73,2.05,-13.8,23.3
2015-11-15 00:04:00,3.0,1.87617,0.00033,397.609,0.025,0.0051,0.0020,140.002,45.000,31502.95829,1.87629,397.633,31.500,45.070,45.000,0.00,0.09,-272.74,-272.79,-1,510,-952,16.9,4.1,-25.3,17.0,4.2,-24.9,5.73,2.15,-13.8,23.3
2015-11-15 00:05:00,3.0,1.87611,0.00037,397.613,0.033,0.0044,0.0019,139.997,45.000,31502.07878,1.87619,397.635,31.499,45.070,45.000,0.00,0.09,-272.74,-272.81,-1,510,-952,16.9,4.1,-25.2,17.0,4.2,-24.9,5.73,2.14,-13.8,23.3
2015-11-15 00:06:00,3.0,1.87632,0.00038,397.608,0.024,0.0031,0.0023,140.000,45.000,31502.87419,1.87634,397.623,31.499,45.070,45.000,0.00,0.09,-272.73,-272.80,-1,510,-952,17.0,4.1,-25.2,17.0,4.2,-24.9,5.73,2.01,-13.8,23.3
2015-11-15 00:07:00,3.0,1.87631,0.00035,397.606,0.031,0.0021,0.0021,139.998,44.999,31503.94639,1.87638,397.617,31.479,45.070,45.000,0.00,0.09,-272.73,-272.79,-2,510,-952,17.0,4.1,-25.1,17.1,4.2,-24.8,5.73,1.92,-13.8,23.4
2015-11-15 00:08:00,3.0,1.87632,0.00034,397.615,0.029,0.0023,0.0017,139.999,45.000,31504.36727,1.87632,397.625,31.443,45.070,45.000,0.00,0.09,-272.74,-272.80,-2,511,-952,17.0,4.1,-25.2,17.1,4.2,-24.9,5.73,1.92,-13.8,23.4
2015-11-15 00:09:00,3.0,1.87624,0.00041,397.613,0.025,0.0014,0.0027,140.000,45.000,31505.78787,1.87629,397.621,31.442,45.071,45.000,0.00,0.09,-272.74,-272.79,-2,511,-952,17.1,4.1,-25.2,17.1,4.2,-24.9,5.73,2.03,-13.8,23.4
2015-11-15 00:10:00,3.0,1.87619,0.00028,397.631,0.023,0.0012,0.0019,139.999,45.000,31507.96781,1.87621,397.636,31.438,45.071,45.000,0.00,0.09,-272.74,-272.78,-1,511,-952,17.1,4.0,-25.2,17.1,4.2,-24.9,5.73,2.14,-13.8,23.4
2015-11-15 00:11:00,3.0,1.87613,0.00045,397.605,0.033,0.0012,0.0014,139.998,44.999,31509.57147,1.87612,397.612,31.438,45.071,45.000,0.00,0.09,-272.75,-272.80,-1,511,-952,17.1,4.0,-25.2,17.1,4.1,-24.9,5.73,2.14,-13.8,23.4
2015-11-15 00:12:00,3.0,1.87608,0.00037,397.603,0.037,0.0009,0.0020,140.002,45.000,31513.72216,1.87612,397.606,31.439,45.071,45.000,0.00,0.09,-272.74,-272.80,-1,512,-952,17.1,4.0,-25.2,17.2,4.1,-24.9,5.73,2.04,-13.8,23.4
2015-11-15 00:13:00,3.0,1.87611,0.00049,397.612,0.031,0.0014,0.0023,139.999,45.000,31515.17807,1.87615,397.618,31.438,45.070,45.000,0.00,0.09,-272.74,-272.79,-1,512,-952,17.1,4.0,-25.4,17.2,4.1,-25.0,5.73,1.93,-13.8,23.4
2015-11-15 00:14:00,3.0,1.87598,0.00030,397.630,0.029,0.0008,0.0017,139.999,45.000,31514.86641,1.87600,397.635,31.440,45.070,45.000,0.00,0.09,-272.74,-272.79,-1,512,-952,17.2,4.0,-25.4,17.2,4.1,-25.1,5.73,1.92,-13.8,23.4
2015-11-15 00:15:00,3.0,1.87633,0.00039,397.618,0.025,0.0008,0.0018,140.003,45.000,31516.80843,1.87634,397.622,31.438,45.070,45.000,0.00,0.09,-272.74,-272.79,-1,512,-952,17.2,4.0,-25.4,17.2,4.1,-25.0,5.73,2.02,-13.8,23.4
2015-11-15 00:16:00,3.0,1.87624,0.00051,397.623,0.033,-0.0007,0.0017,139.999,45.000,31518.61797,1.87620,397.619,31.438,45.070,45.000,0.00,0.09,-272.74,-272.80,-2,513,-952,17.3,3.9,-25.4,17.3,4.1,-25.0,5.73,2.13,-13.8,23.5
2015-11-15 00:17:00,3.0,1.87668,0.00043,397.616,0.033,-0.0000,0.0018,139.999,45.000,31518.59182,1.87669,397.615,31.438,45.070,45.000,0.00,0.09,-272.74,-272.79,-2,513,-952,17.3,3.9,-25.4,17.3,4.1,-25.0,5.73,2.15,-13.8,23.5
2015-11-15 00:18:00,3.0,1.87646,0.00027,397.641,0.035,-0.0001,0.0018,140.001,45.000,31520.33841,1.87645,397.640,31.437,45.070,45.000,0.00,0.09,-272.74,-272.80,-2,513,-952,17.3,3.9,-25.4,17.3,4.1,-25.0,5.73,2.05,-13.8,23.5
2015-11-15 00:19:00,3.0,1.87658,0.00027,397.637,0.030,-0.0005,0.0020,139.999,45.000,31521.00569,1.87658,397.635,31.437,45.070,45.000,0.00,0.09,-272.74,-272.80,-2,513,-952,17.4,3.9,-25.3,17.3,4.1,-25.0,5.73,1.94,-13.8,23.5
2015-11-15 00:20:00,0.0,1.94404,0.02495,402.859,1.998,0.0741,0.0338,140.002,45.000,31535.85933,1.94287,403.109,31.436,45.070,45.000,0.00,0.09,-272.74,-272.79,-3,515,-952,17.4,3.9,-25.3,17.4,4.1,-24.9,5.73,2.07,-13.8,23.5
2015-11-15 00:21:00,0.0,1.95408,0.00047,403.647,0.050,0.0959,0.0015,140.001,45.000,31548.67739,1.95595,404.113,31.440,45.070,45.000,0.00,0.09,-272.74,-272.80,-3,516,-952,17.5,4.0,-25.2,17.4,4.1,-24.8,5.73,2.00,-13.8,23.5
2015-11-15 00:22:00,0.0,1.95411,0.00049,403.621,0.029,0.0975,0.0022,139.998,45.000,31550.70353,1.95599,404.096,31.441,45.070,45.000,0.00,0.09,-272.75,-272.80,-3,517,-952,17.5,4.0,-25.2,17.4,4.1,-24.8,5.73,2.02,-13.8,23.5
2015-11-15 00:23:00,0.0,1.95424,0.00030,403.603,0.029,0.0980,0.0017,139.998,45.000,31551.50865,1.95613,404.080,31.450,45.070,45.000,0.00,0.09,-272.74,-272.79,-3,517,-952,17.5,4.0,-25.2,17.5,4.1,-24.8,5.73,2.05,-13.8,23.5
2015-11-15 00:24:00,0.0,1.95428,0.00032,403.603,0.032,0.0975,0.0017,140.000,45.000,31555.17392,1.95614,404.077,31.440,45.070,45.000,0.00,0.09,-272.74,-272.79,-3,517,-952,17.5,3.9,-25.2,17.5,4.1,-24.8,5.73,2.08,-13.8,23.5
2015-11-15 00:25:00,0.0,1.95446,0.00031,403.611,0.032,0.0970,0.0012,140.001,45.000,31557.20715,1.95632,404.082,31.437,45.070,45.000,0.00,0.09,-272.75,-272.80,-3,517,-952,17.6,3.9,-25.2,17.5,4.1,-24.9,5.73,2.10,-13.8,23.5
2015-11-15 00:26:00,0.0,1.95406,0.00036,403.563,0.056,0.0980,0.0013,140.000,45.000,31557.95340,1.95595,404.041,31.438,45.070,45.000,0.00,0.09,-272.74,-272.79,-3,518,-952,17.6,3.9,-25.2,17.5,4.1,-24.9,5.73,2.13,-13.8,23.5
2015-11-15 00:27:00,0.0,1.95363,0.00037,403.496,0.040,0.0994,0.0017,140.001,45.000,31561.81616,1.95556,403.978,31.438,45.070,45.000,0.00,0.09,-272.74,-272.79,-3,518,-952,17.6,4.0,-25.1,17.5,4.1,-24.8,5.73,2.12,-13.8,23.5
2015-11-15 00:28:00,0.0,1.95391,0.00035,403.503,0.037,0.0994,0.0019,139.999,45.000,31560.77172,1.95580,403.987,31.429,45.070,45.000,0.00,0.09,-272.75,-272.80,-3,518,-952,17.6,4.0,-25.1,17.5,4.1,-24.7,5.73,2.09,-13.8,23.6
2015-11-15 00:29:00,0.0,1.95405,0.00046,403.499,0.036,0.0992,0.0022,139.999,45.000,31561.69637,1.95598,403.981,31.387,45.070,45.000,0.00,0.09,-272.74,-272.79,-3,518,-952,17.6,4.0,-25.1,17.5,4.1,-24.7,5.73,2.07,-13.8,23.5
2015-11-15 00:30:00,0.0,1.95428,0.00032,403.497,0.031,0.0986,0.0021,140.000,45.000,31560.90456,1.95618,403.976,31.391,45.071,45.000,0.00,0.09,-272.74,-272.79,-3,518,-952,17.5,4.0,-25.1,17.5,4.1,-24.7,5.73,2.03,-13.8,23.5
2015-11-15 00:31:00,0.0,1.95440,0.00041,403.476,0.035,0.0989,0.0015,140.001,45.000,31563.39846,1.95629,403.957,31.424,45.070,45.000,0.00,0.09,-272.74,-272.79,-3,518,-952,17.5,4.0,-25.1,17.5,4.1,-24.7,5.73,2.00,-13.8,23.6
2015-11-15 00:32:00,0.0,1.95439,0.00044,403.452,0.035,0.0986,0.0011,140.000,45.000,31563.64936,1.95627,403.931,31.438,45.070,45.000,0.00,0.09,-272.74,-272.80,-3,518,-952,17.5,4.0,-25.1,17.5,4.1,-24.7,5.73,1.99,-13.8,23.5
2015-11-15 00:33:00,0.0,1.95435,0.00047,403.421,0.050,0.0995,0.0017,140.000,45.000,31566.19959,1.95627,403.905,31.437,45.070,45.000,0.00,0.09,-272.74,-272.80,-3,518,-952,17.5,4.0,-25.1,17.5,4.1,-24.7,5.73,1.99,-13.8,23.5
2015-11-15 00:34:00,0.0,1.95445,0.00029,403.402,0.032,0.1000,0.0017,139.999,45.000,31566.61227,1.95635,403.886,31.437,45.070,45.000,0.00,0.09,-272.74,-272.79,-3,518,-952,17.5,4.0,-25.0,17.5,4.1,-24.7,5.73,2.00,-13.8,23.5
2015-11-15 00:35:00,0.0,1.95437,0.00047,403.407,0.030,0.1003,0.0022,139.997,45.000,31568.52578,1.95635,403.895,31.437,45.070,45.000,0.00,0.09,-272.75,-272.80,-3,518,-952,17.5,4.0,-24.9,17.5,4.2,-24.6,5.73,2.04,-13.8,23.5
2015-11-15 00:36:00,0.0,1.95459,0.00044,403.420,0.040,0.1008,0.0015,139.998,45.000,31567.53161,1.95651,403.909,31.434,45.070,45.000,0.00,0.09,-272.74,-272.80,-3,518,-952,17.5,4.0,-24.9,17.5,4.2,-24.6,5.73,2.08,-13.8,23.5
2015-11-15 00:37:00,0.0,1.95507,0.00042,403.400,0.038,0.1003,0.0014,139.999,45.000,31567.83355,1.95698,403.889,31.420,45.070,45.000,0.00,0.09,-272.74,-272.79,-3,518,-952,17.5,4.0,-24.9,17.5,4.2,-24.6,5.73,2.11,-13.8,23.5
2015-11-15 00:38:00,0.0,1.95500,0.00036,403.395,0.032,0.1010,0.0018,139.997,45.000,31567.93928,1.95695,403.884,31.385,45.070,45.000,0.00,0.09,-272.74,-272.79,-3,518,-952,17.5,4.0,-25.0,17.5,4.2,-24.6,5.73,2.12,-13.8,23.5
2015-11-15 00:39:00,0.0,1.95503,0.00035,403.408,0.040,0.1003,0.0020,139.998,45.000,31568.12802,1.95697,403.895,31.394,45.070,45.000,0.00,0.09,-272.74,-272.80,-3,518,-952,17.5,4.0,-25.0,17.5,4.1,-24.6,5.73,2.12,-13.8,23.5
2015-11-15 00:40:00,0.0,1.95432,0.00046,403.383,0.055,0.1004,0.0026,139.999,44.999,31570.00027,1.95629,403.872,31.438,45.071,45.000,0.00,0.09,-272.73,-272.79,-3,518,-952,17.5,4.0,-25.0,17.5,4.1,-24.7,5.73,2.09,-13.8,23.6
2015-11-15 00:41:00,0.0,1.95418,0.00049,403.357,0.041,0.1006,0.0014,140.000,45.000,31568.91364,1.95610,403.846,31.438,45.070,45.000,0.00,0.09,-272.74,-272.79,-3,518,-952,17.5,4.0,-25.0,17.5,4.1,-24.7,5.73,2.06,-13.8,23.6
2015-11-15 00:42:00,0.0,1.95443,0.00043,403.352,0.031,0.1013,0.0017,140.000,45.000,31570.05684,1.95637,403.845,31.426,45.070,45.000,0.00,0.09,-272.74,-272.80,-3,518,-952,17.5,4.1,-24.9,17.5,4.2,-24.6,5.73,2.02,-13.8,23.5
2015-11-15 00:43:00,0.0,1.95433,0.00038,403.333,0.047,0.1002,0.0018,140.000,45.000,31570.90164,1.95628,403.821,31.396,45.070,45.000,0.00,0.09,-272.73,-272.80,-3,518,-952,17.5,4.0,-25.0,17.5,4.2,-24.6,5.73,1.99,-13.8,23.5
2015-11-15 00:44:00,0.0,1.95442,0.00061,403.265,0.036,0.1016,0.0019,140.003,45.000,31571.18928,1.95635,403.759,31.392,45.070,45.000,0.00,0.09,-272.73,-272.80,-3,518,-952,17.4,4.1,-24.9,17.5,4.2,-24.6,5.73,1.98,-13.8,23.5
2015-11-15 00:45:00,0.0,1.95445,0.00033,403.228,0.034,0.1008,0.0023,139.998,45.001,31569.72930,1.95642,403.717,31.382,45.070,45.000,0.00,0.09,-272.74,-272.80,-3,518,-952,17.4,4.1,-24.9,17.5,4.2,-24.6,5.73,1.99,-13.8,23.5
2015-11-15 00:46:00,0.0,1.95461,0.00035,403.243,0.030,0.1016,0.0017,140.001,45.000,31571.44899,1.95655,403.737,31.402,45.071,45.000,0.00,0.09,-272.74,-272.80,-3,519,-952,17.4,4.1,-24.9,17.5,4.2,-24.5,5.73,2.01,-13.8,23.5
2015-11-15 00:47:00,0.0,1.95473,0.00032,403.232,0.025,0.1020,0.0017,139.999,45.000,31569.97896,1.95668,403.728,31.400,45.070,45.000,0.00,0.09,-272.73,-272.79,-3,518,-952,17.4,4.1,-24.9,17.4,4.2,-24.5,5.73,2.05,-13.8,23.5
2015-11-15 00:48:00,0.0,1.95490,0.00037,403.220,0.036,0.1017,0.0019,140.001,45.000,31570.92525,1.95686,403.714,31.427,45.070,45.000,0.00,0.09,-272.74,-272.79,-3,518,-952,17.4,4.1,-24.9,17.4,4.2,-24.6,5.73,2.08,-13.8,23.5
2015-11-15 00:49:00,0.0,1.95513,0.00034,403.204,0.032,0.1023,0.0020,139.999,45.000,31567.87681,1.95710,403.700,31.419,45.070,45.000,0.00,0.09,-272.75,-272.80,-3,518,-952,17.3,4.1,-24.8,17.4,4.2,-24.6,5.73,2.10,-13.8,23.5
2015-11-15 00:50:00,0.0,1.95504,0.00038,403.235,0.031,0.1026,0.0017,139.999,45.000,31566.63962,1.95703,403.733,31.428,45.070,45.000,0.00,0.09,-272.74,-272.79,-3,518,-952,17.3,4.1,-24.8,17.4,4.2,-24.5,5.73,2.12,-13.8,23.5
2015-11-15 00:51:00,0.0,1.95527,0.00034,403.218,0.036,0.1028,0.0024,139.999,45.000,31566.15896,1.95724,403.716,31.428,45.070,45.000,0.00,0.09,-272.74,-272.79,-3,518,-952,17.3,4.1,-24.9,17.4,4.2,-24.5,5.73,2.12,-13.8,23.5
2015-11-15 00:52:00,0.0,1.95494,0.00044,403.193,0.034,0.1022,0.0021,139.995,45.000,31565.85687,1.95692,403.692,31.435,45.070,45.000,0.00,0.09,-272.75,-272.79,-3,518,-952,17.3,4.1,-24.8,17.4,4.2,-24.5,5.73,2.10,-13.8,23.5
2015-11-15 00:53:00,0.0,1.95501,0.00040,403.179,0.028,0.1024,0.0017,139.999,45.000,31567.57671,1.95698,403.676,31.435,45.070,45.000,0.00,0.09,-272.74,-272.80,-3,518,-952,17.3,4.1,-24.8,17.4,4.2,-24.5,5.73,2.07,-13.8,23.5
2015-11-15 00:54:00,0.0,1.95492,0.00039,403.171,0.033,0.1028,0.0020,139.999,45.000,31568.08787,1.95688,403.670,31.406,45.070,45.000,0.00,0.09,-272.74,-272.79,-3,518,-952,17.3,4.1,-24.8,17.4,4.2,-24.5,5.73,2.03,-13.8,23.5
2015-11-15 00:55:00,0.0,1.95493,0.00024,403.143,0.033,0.1027,0.0016,139.998,45.000,31568.62043,1.95691,403.641,31.375,45.070,45.000,0.00,0.09,-272.74,-272.80,-3,518,-952,17.3,4.2,-24.8,17.4,4.2,-24.5,5.73,2.00,-13.8,23.5
2015-11-15 00:56:00,0.0,1.95485,0.00040,403.135,0.029,0.1025,0.0021,140.000,45.000,31570.04778,1.95683,403.635,31.375,45.070,45.000,0.00,0.09,-272.74,-272.80,-3,518,-952,17.3,4.1,-24.8,17.3,4.2,-24.5,5.73,1.99,-13.8,23.5
2015-11-15 00:57:00,0.0,1.95479,0.00042,403.127,0.037,0.1019,0.0016,139.999,45.000,31567.92808,1.95677,403.621,31.376,45.071,45.000,0.00,0.09,-272.73,-272.79,-3,518,-952,17.3,4.1,-24.9,17.3,4.2,-24.5,5.73,1.99,-13.8,23.5
2015-11-15 00:58:00,0.0,1.95498,0.00030,403.111,0.030,0.1028,0.0022,140.000,45.000,31566.09577,1.95694,403.612,31.379,45.071,45.000,0.00,0.09,-272.73,-272.80,-3,518,-952,17.3,4.1,-24.8,17.3,4.2,-24.5,5.73,2.01,-13.8,23.5
2015-11-15 00:59:00,0.0,1.95464,0.00034,403.069,0.043,0.1029,0.0016,140.001,45.000,31567.62770,1.95666,403.568,31.379,45.070,45.000,0.00,0.09,-272.74,-272.80,-3,518,-952,17.2,4.1,-24.8,17.3,4.2,-24.6,5.73,2.03,-13.8,23.5
2015-11-15 01:00:00,0.0,1.95476,0.00034,403.079,0.030,0.1021,0.0019,140.000,45.000,31565.73166,1.95671,403.575,31.376,45.070,45.000,0.00,0.09,-272.74,-272.80,-3,518,-952,17.2,4.1,-24.9,17.3,4.2,-24.6,5.73,2.07,-13.8,23.5
2015-11-15 01:01:00,0.0,1.95517,0.00040,403.065,0.041,0.1012,0.0014,140.002,45.000,31565.48501,1.95709,403.559,31.373,45.070,45.000,0.00,0.09,-272.73,-272.79,-3,518,-952,17.2,4.1,-24.9,17.3,4.2,-24.5,5.73,2.09,-13.8,23.5
2015-11-15 01:02:00,0.0,1.95486,0.00047,403.027,0.044,0.1011,0.0015,139.999,45.000,31565.51364,1.95681,403.517,31.369,45.070,45.000,0.00,0.09,-272.75,-272.80,-3,518,-952,17.2,4.1,-24.9,17.3,4.2,-24.6,5.73,2.11,-13.8,23.4
2015-11-15 01:03:00,0.0,1.95468,0.00041,402.994,0.032,0.1017,0.0016,140.000,45.000,31565.41555,1.95666,403.487,31.370,45.070,45.000,0.00,0.09,-272.74,-272.79,-3,518,-952,17.2,4.1,-24.9,17.3,4.2,-24.6,5.73,2.12,-13.8,23.4
2015-11-15 01:04:00,0.0,1.95445,0.00031,402.963,0.039,0.1025,0.0019,140.000,45.000,31566.59870,1.95641,403.461,31.372,45.070,45.000,0.00,0.09,-272.74,-272.79,-3,518,-952,17.2,4.2,-24.9,17.3,4.2,-24.6,5.73,2.11,-13.8,23.4
2015-11-15 01:05:00,0.0,1.95430,0.00040,402.941,0.030,0.1023,0.0016,139.999,45.000,31566.69651,1.95629,403.439,31.375,45.070,45.000,0.00,0.09,-272.74,-272.79,-3,518,-952,17.2,4.2,-24.9,17.3,4.2,-24.6,5.73,2.09,-13.8,23.4
2015-11-15 01:06:00,0.0,1.95449,0.00048,402.920,0.043,0.1019,0.0018,139.998,45.000,31564.87283,1.95646,403.415,31.375,45.070,45.000,0.00,0.09,-272.74,-272.79,-3,518,-952,17.2,4.2,-24.8,17.3,4.2,-24.6,5.73,2.06,-13.8,23.5
2015-11-15 01:07:00,0.0,1.95427,0.00057,402.874,0.049,0.1024,0.0023,140.000,45.000,31566.50430,1.95622,403.370,31.373,45.070,45.000,0.00,0.09,-272.74,-272.79,-3,518,-952,17.2,4.2,-24.9,17.3,4.2,-24.6,5.73,2.04,-13.8,23.5
2015-11-15 01:08:00,0.0,1.95454,0.00030,402.882,0.027,0.1021,0.0016,140.000,45.000,31564.67749,1.95651,403.377,31.372,45.070,45.000,0.00,0.09,-272.74,-272.79,-3,518,-952,17.2,4.2,-24.9,17.3,4.2,-24.6,5.73,2.01,-13.8,23.4
2015-11-15 01:09:00,0.0,1.95454,0.00038,402.889,0.034,0.1018,0.0018,140.003,45.000,31565.85489,1.95652,403.383,31.368,45.071,45.000,0.00,0.09,-272.75,-272.80,-3,518,-952,17.1,4.1,-24.9,17.3,4.2,-24.6,5.73,1.99,-13.8,23.4
2015-11-15 01:10:00,0.0,1.95422,0.00026,402.859,0.046,0.1017,0.0014,139.996,45.000,31563.93825,1.95620,403.352,31.370,45.070,45.000,0.00,0.09,-272.74,-272.79,-3,518,-952,17.1,4.1,-24.9,17.3,4.2,-24.6,5.73,1.99,-13.8,23.4
2015-11-15 01:11:00,0.0,1.95430,0.00045,402.872,0.028,0.1015,0.0013,140.000,45.000,31564.76737,1.95623,403.366,31.372,45.070,45.000,0.00,0.09,-272.74,-272.80,-3,518,-952,17.1,4.2,-24.9,17.3,4.2,-24.6,5.73,2.00,-13.8,23.4
2015-11-15 01:12:00,0.0,1.95424,0.00036,402.829,0.026,0.1014,0.0020,139.999,45.000,31564.50040,1.95620,403.320,31.375,45.070,45.000,0.00,0.09,-272.74,-272.80,-3,518,-952,17.1,4.2,-24.9,17.3,4.2,-24.6,5.73,2.02,-13.8,23.4
2015-11-15 01:13:00,0.0,1.95376,0.00034,402.832,0.030,0.1023,0.0014,140.002,45.000,31562.62873,1.95577,403.328,31.372,45.070,45.000,0.00,0.09,-272.74,-272.80,-3,518,-952,17.1,4.1,-24.9,17.2,4.2,-24.7,5.73,2.06,-13.8,23.4
2015-11-15 01:14:00,0.0,1.95357,0.00029,402.819,0.030,0.1025,0.0018,140.001,45.000,31561.61567,1.95552,403.316,31.372,45.070,45.000,0.00,0.09,-272.74,-272.79,-3,518,-952,17.1,4.2,-24.9,17.2,4.2,-24.6,5.73,2.09,-13.8,23.4
2015-11-15 01:15:00,0.0,1.95358,0.00038,402.786,0.030,0.1021,0.0018,139.997,45.000,31560.05371,1.95556,403.281,31.375,45.070,45.000,0.00,0.09,-272.74,-272.80,-3,518,-952,17.1,4.2,-24.9,17.2,4.2,-24.6,5.73,2.11,-13.8,23.4
2015-11-15 01:16:00,0.0,1.95372,0.00033,402.765,0.031,0.1020,0.0016,139.999,45.001,31560.33497,1.95567,403.262,31.371,45.070,45.000,0.00,0.09,-272.74,-272.80,-3,518,-952,17.1,4.2,-24.9,17.2,4.2,-24.6,5.73,2.13,-13.8,23.4
2015-11-15 01:17:00,0.0,1.95357,0.00037,402.747,0.044,0.1019,0.0018,139.996,45.001,31560.42476,1.95555,403.241,31.373,45.070,45.000,0.00,0.09,-272.74,-272.79,-3,518,-952,17.1,4.2,-24.9,17.2,4.2,-24.6,5.73,2.11,-13.8,23.4
2015-11-15 01:18:00,0.0,1.95377,0.00031,402.744,0.031,0.1020,0.0014,140.001,45.000,31559.32459,1.95570,403.239,31.372,45.070,45.000,0.00,0.09,-272.74,-272.79,-3,518,-952,17.1,4.2,-24.9,17.2,4.2,-24.6,5.73,2.10,-13.8,23.4
2015-11-15 01:19:00,0.0,1.95375,0.00043,402.718,0.027,0.1017,0.0015,139.999,45.000,31558.30454,1.95573,403.210,31.375,45.070,45.000,0.00,0.09,-272.74,-272.79,-3,518,-952,17.1,4.2,-24.9,17.2,4.2,-24.6,5.73,2.07,-13.8,23.4
2015-11-15 01:20:00,0.0,1.95350,0.00031,402.744,0.034,0.1022,0.0018,139.999,45.000,31558.37052,1.95544,403.239,31.371,45.070,45.000,0.00,0.09,-272.74,-272.79,-3,518,-952,17.1,4.2,-24.9,17.2,4.2,-24.6,5.73,2.04,-13.8,23.4
2015-11-15 01:21:00,0.0,1.95368,0.00028,402.725,0.038,0.1022,0.0012,139.997,44.999,31558.73808,1.95568,403.221,31.374,45.070,45.000,0.00,0.09,-272.74,-272.79,-3,518,-952,17.1,4.2,-24.9,17.2,4.2,-24.6,5.73,2.02,-13.8,23.4
2015-11-15 01:22:00,0.0,1.95380,0.00037,402.677,0.044,0.1013,0.0015,139.998,44.999,31558.68694,1.95574,403.169,31.375,45.070,45.000,0.00,0.09,-272.74,-272.79,-3,518,-952,17.1,4.2,-24.9,17.2,4.2,-24.6,5.73,2.00,-13.8,23.4
2015-11-15 01:23:00,0.0,1.95397,0.00043,402.670,0.036,0.1020,0.0014,139.999,45.000,31557.89905,1.95594,403.164,31.375,45.070,45.000,0.00,0.09,-272.74,-272.79,-3,517,-952,17.1,4.2,-24.9,17.2,4.2,-24.6,5.73,2.00,-13.8,23.4
2015-11-15 01:24:00,0.0,1.95372,0.00029,402.609,0.040,0.1022,0.0012,139.997,45.000,31558.68436,1.95569,403.106,31.368,45.070,45.000,0.00,0.09,-272.73,-272.79,-3,518,-952,17.1,4.2,-24.9,17.2,4.2,-24.6,5.73,2.00,-13.8,23.4
2015-11-15 01:25:00,0.0,1.95371,0.00027,402.571,0.034,0.1025,0.0013,139.998,45.000,31557.36022,1.95567,403.068,31.349,45.070,45.000,0.00,0.09,-272.74,-272.79,-3,517,-952,17.1,4.2,-24.8,17.2,4.3,-24.6,5.73,2.02,-13.8,23.4
2015-11-15 01:26:00,0.0,1.95375,0.00053,402.544,0.037,0.1038,0.0019,139.997,45.000,31555.51204,1.95574,403.047,31.312,45.070,45.000,0.00,0.09,-272.74,-272.80,-3,518,-952,17.0,4.2,-24.8,17.2,4.3,-24.5,5.73,2.04,-13.8,23.4
2015-11-15 01:27:00,0.0,1.95337,0.00042,402.513,0.032,0.1030,0.0012,139.999,45.000,31557.61340,1.95541,403.014,31.299,45.070,45.000,0.00,0.09,-272.74,-272.80,-3,518,-952,17.0,4.2,-24.7,17.2,4.3,-24.5,5.73,2.07,-13.9,23.4
2015-11-15 01:28:00,0.0,1.95345,0.00042,402.501,0.032,0.1036,0.0031,139.997,45.000,31555.15333,1.95542,403.004,31.266,45.071,45.000,0.00,0.09,-272.74,-272.79,-3,518,-952,17.0,4.2,-24.7,17.2,4.3,-24.5,5.73,2.10,-13.8,23.4
2015-11-15 01:29:00,0.0,1.95322,0.00030,402.450,0.029,0.1029,0.0017,139.999,45.000,31556.16840,1.95522,402.950,31.249,45.071,45.001,0.00,0.09,-272.75,-272.80,-3,517,-952,17.0,4.2,-24.8,17.1,4.3,-24.5,5.73,2.12,-13.9,23.4
2015-11-15 01:30:00,0.0,1.95308,0.00042,402.421,0.038,0.1035,0.0017,139.999,45.000,31556.32101,1.95504,402.923,31.244,45.071,45.001,0.00,0.09,-272.74,-272.80,-3,517,-952,17.0,4.2,-24.8,17.1,4.3,-24.5,5.73,2.11,-13.9,23.4
2015-11-15 01:31:00,0.0,1.95310,0.00031,402.402,0.036,0.1031,0.0020,139.997,45.000,31555.98477,1.95511,402.902,31.245,45.071,45.001,0.00,0.09,-272.74,-272.79,-3,517,-952,17.0,4.2,-24.8,17.1,4.3,-24.5,5.73,2.11,-13.9,23.4
2015-11-15 01:32:00,0.0,1.95309,0.00040,402.381,0.019,0.1034,0.0021,139.999,45.000,31556.24819,1.95507,402.881,31.243,45.071,45.000,0.00,0.09,-272.74,-272.80,-3,517,-952,17.0,4.2,-24.8,17.1,4.3,-24.4,5.73,2.09,-13.9,23.3
2015-11-15 01:33:00,0.0,1.95293,0.00038,402.405,0.035,0.1036,0.0017,139.998,45.000,31556.87818,1.95494,402.907,31.246,45.071,45.000,0.00,0.09,-272.74,-272.80,-3,517,-952,17.0,4.3,-24.7,17.1,4.3,-24.4,5.73,2.06,-13.9,23.3
2015-11-15 01:34:00,0.0,1.95271,0.00036,402.375,0.031,0.1040,0.0018,139.999,45.000,31557.45408,1.95471,402.880,31.251,45.070,45.000,0.00,0.09,-272.74,-272.79,-3,517,-952,17.0,4.3,-24.7,17.1,4.3,-24.4,5.73,2.04,-13.9,23.3
2015-11-15 01:35:00,0.0,1.95257,0.00038,402.384,0.025,0.1037,0.0017,140.002,45.000,31560.50593,1.95455,402.885,31.255,45.070,45.000,0.00,0.09,-272.73,-272.80,-3,517,-952,17.0,4.3,-24.7,17.1,4.3,-24.4,5.73,2.01,-13.9,23.3
2015-11-15 01:36:00,0.0,1.95265,0.00035,402.371,0.032,0.1035,0.0014,139.999,45.001,31557.78702,1.95465,402.873,31.254,45.070,45.000,0.00,0.09,-272.73,-272.80,-3,517,-952,17.0,4.3,-24.7,17.1,4.3,-24.4,5.73,2.00,-13.9,23.3
2015-11-15 01:37:00,0.0,1.95228,0.00038,402.360,0.040,0.1044,0.0018,140.000,45.001,31559.05799,1.95431,402.865,31.250,45.070,45.000,0.00,0.09,-272.74,-272.80,-3,517,-952,17.0,4.3,-24.7,17.1,4.3,-24.4,5.73,2.00,-13.9,23.3
2015-11-15 01:38:00,0.0,1.95215,0.00038,402.326,0.034,0.1040,0.0014,139.999,45.001,31558.92870,1.95416,402.831,31.250,45.070,45.000,0.00,0.09,-272.73,-272.79,-3,517,-952,17.0,4.3,-24.7,17.1,4.4,-24.4,5.73,2.01,-13.9,23.3
2015-11-15 01:39:00,0.0,1.95208,0.00038,402.288,0.034,0.1043,0.0015,140.000,45.001,31559.14391,1.95410,402.795,31.251,45.070,45.000,0.00,0.09,-272.74,-272.80,-3,517,-952,17.0,4.3,-24.7,17.1,4.4,-24.4,5.73,2.02,-13.9,23.3
2015-11-15 01:40:00,0.0,1.95168,0.00043,402.262,0.032,0.1041,0.0016,139.998,45.000,31558.65071,1.95371,402.766,31.250,45.070,45.000,0.00,0.09,-272.75,-272.80,-3,517,-952,17.0,4.3,-24.7,17.1,4.4,-24.3,5.73,2.04,-13.9,23.4
2015-11-15 01:41:00,0.0,1.95155,0.00039,402.235,0.028,0.1048,0.0018,139.998,45.000,31558.61842,1.95355,402.743,31.250,45.070,45.000,0.00,0.09,-272.73,-272.79,-3,517,-952,16.9,4.3,-24.7,17.1,4.4,-24.4,5.73,2.07,-13.9,23.3
2015-11-15 01:42:00,0.0,1.95149,0.00039,402.195,0.033,0.1048,0.0016,139.997,45.000,31556.16262,1.95352,402.704,31.251,45.070,45.000,0.00,0.09,-272.75,-272.80,-3,517,-952,16.9,4.3,-24.7,17.1,4.4,-24.4,5.73,2.09,-13.9,23.3
2015-11-15 01:43:00,0.0,1.95108,0.00039,402.149,0.033,0.1047,0.0019,140.002,45.000,31557.82247,1.95311,402.657,31.250,45.070,45.000,0.00,0.09,-272.75,-272.80,-3,517,-952,16.9,4.3,-24.6,17.1,4.4,-24.4,5.73,2.11,-13.9,23.3
2015-11-15 01:44:00,0.0,1.95060,0.00030,402.102,0.035,0.1047,0.0012,140.000,45.000,31556.28636,1.95262,402.609,31.250,45.070,45.000,0.00,0.09,-272.75,-272.79,-3,517,-952,16.9,4.3,-24.6,17.1,4.4,-24.3,5.73,2.11,-13.9,23.3
2015-11-15 01:45:00,0.0,1.95034,0.00030,402.114,0.024,0.1046,0.0017,139.998,45.000,31556.46177,1.95235,402.621,31.245,45.070,45.000,0.00,0.09,-272.74,-272.79,-3,517,-952,16.9,4.3,-24.6,17.1,4.4,-24.3,5.73,2.12,-13.9,23.3